STARLINK-33701, 63464

Orbit data source: Space-Track

STARLINK-33701, 63464 is a payload satellite owned by SpaceX/Seattle (US) in LEO that was launched on Sun, 06 Apr 2025 UTC via an FALCON 9 launch vehicle from the Air Force Eastern Test Range (AFETR). Payload-class satellites include a variety of spacecraft equipped with specific instruments for various scientific and technological missions. These include communications satellites like Starlink; space stations such as the ISS; scientific satellites like the Hubble; Earth observation satellites from companies like Planet Labs, Umbra, and HawkEye 360; GPS; miniature CubeSats for education and research; and military/defense satellites.

Loading next visibility...
Identifier
63464, 2025-070E
Orbit
LEO
Country
Flag of USUS
Related business
Manufacturer
SpaceX/Seattle
Mission
Operational Commercial Communications
Bus & Motor
STARLINK V2MO, Unknown motor
Mass
575 kg wet, ~530 kg dry
Launch date (UTC)
2025-04-06 (1 year ago)
Launch vehicle
FALCON 9
Launch site
Air Force Eastern Test Range (AFETR)
Object type
Payload
Rocket body
Debris
Shape & HBR
Box + 2 Pan, 17.7 m
Radar Cross Section
36.964 m², Large (>1 m²)

Expand to show TLE details & history
Last TLE update: 10 hours ago

TLE from 10 hours ago
0 STARLINK-33701
1 63464U 25070E   26169.72240899  .00014740  00000-0  54411-3 0  9996
2 63464  43.0047  49.6080 0001297 273.8637  86.2066 15.27577841 68420
Epoch: 2026-06-18T17:20Z
TLE epoch observation values (Epoch: 2026-06-18T17:20:16.136Z)
Latitude
-0.00006°
Longitude
-117.42095°
Altitude
482.773 km
Speed
7.626 km/s
True Right ascension
03h 18m 25s
True Declination
0° 00' 00"
Sunlit
Object was in daylight at epoch
Visualization orbit readout
Latitude
Unknown
Longitude
Unknown
Altitude
Unknown
Speed
Unknown
Apparent Right ascension
Unknown
Apparent Declination
Unknown
Sunlit
N/A
Visualization observer readout
Local Sidereal Time
14:03:22
Azimuth
Unknown
Elevation
Unknown
Doppler factor
Unknown
Orbital elements
Apogee altitude
485.89 km
Perigee altitude
484.11 km
Semi-major axis
6,863.137 km
Eccentricity
0.00013
Inclination
43.0047°
RAAN
49.608°
Arg. of periapsis
273.8637°
True anomaly
86.22143°
Mean anomaly
86.2066°
Eccentric anomaly
86.21402°
Mean motion
3.81733 °/min
Orbital period
94.31 mins
BSTAR
0.00054411
Loading maneuver chart data...
Computing Atmospheric mass density...
Loading historical data...
Loading historical data...
Loading historical data...
Loading historical data...
Loading historical data...
Loading historical data...
Loading historical data...

Documentation

Showing up to 5 results
|